2021-12-29 00:03:16 r, 21.03m,0000000000Hz,0001408439c,0000003.057s,-013.3C,00002191
2021-12-29 00:13:14 r, 21.04m,0000000001Hz,0001410300c,0000003.061s,-013.3C,00002191
2021-12-29 00:23:14 r, 21.04m,0000000000Hz,0001413138c,0000003.067s,-013.6C,00002191
2021-12-29 00:33:17 r, 21.04m,0000000000Hz,0001416138c,0000003.073s,-013.6C,00002191
2021-12-29 00:43:14 r, 21.04m,0000000000Hz,0001415399c,0000003.072s,-013.6C,00002191
2021-12-29 00:53:14 r, 21.05m,0000000000Hz,0001420367c,0000003.082s,-013.6C,00002191
2021-12-29 01:03:17 r, 21.05m,0000000000Hz,0001426147c,0000003.095s,-013.9C,00002191
2021-12-29 01:13:14 r, 21.05m,0000000000Hz,0001426643c,0000003.096s,-013.9C,00002191
2021-12-29 01:23:17 r, 21.05m,0000000001Hz,0001431063c,0000003.106s,-013.9C,00002191
2021-12-29 01:33:15 r, 21.06m,0000000000Hz,0001438896c,0000003.123s,-013.9C,00002191
2021-12-29 01:43:15 r, 21.06m,0000000000Hz,0001439392c,0000003.124s,-013.9C,00002191
2021-12-29 01:53:17 r, 21.08m,0000000000Hz,0001452301c,0000003.152s,-014.2C,00002191
2021-12-29 02:03:15 r, 21.08m,0000000000Hz,0001458136c,0000003.164s,-014.6C,00002191
2021-12-29 02:13:14 r, 21.09m,0000000000Hz,0001461903c,0000003.173s,-014.6C,00002191
2021-12-29 02:23:15 r, 21.09m,0000000000Hz,0001459554c,0000003.167s,-014.6C,00002191
2021-12-29 02:33:16 r, 21.09m,0000000000Hz,0001468867c,0000003.188s,-014.2C,00002191
2021-12-29 02:43:14 r, 21.09m,0000000000Hz,0001474302c,0000003.199s,-014.2C,00002191
2021-12-29 02:53:16 r, 21.09m,0000000000Hz,0001471964c,0000003.194s,-014.6C,00002191
2021-12-29 03:03:15 r, 21.09m,0000000000Hz,0001471380c,0000003.193s,-014.6C,00002191
2021-12-29 03:13:14 r, 21.26m,0000000000Hz,0001722848c,0000003.739s,-014.9C,00002191
2021-12-29 03:23:17 r, 21.09m,0000000001Hz,0001470433c,0000003.191s,-014.9C,00002191
2021-12-29 03:33:15 r, 21.04m,0000000000Hz,0001412564c,0000003.065s,-014.9C,00002191
2021-12-29 03:43:15 r, 20.60m,0000000001Hz,0000938032c,0000002.036s,-015.2C,00002191
2021-12-29 03:53:17 r, 20.69m,0000000000Hz,0001021436c,0000002.217s,-015.2C,00002191
2021-12-29 04:03:15 r, 20.71m,0000000000Hz,0001041496c,0000002.260s,-015.2C,00002191
2021-12-29 04:13:14 r, 20.77m,0000000000Hz,0001098276c,0000002.383s,-015.5C,00002191
2021-12-29 04:23:15 r, 20.91m,0000000001Hz,0001257773c,0000002.730s,-015.5C,00002191
2021-12-29 04:33:16 r, 20.88m,0000000001Hz,0001224843c,0000002.658s,-015.8C,00002191
2021-12-29 04:43:14 r, 20.85m,0000000001Hz,0001189950c,0000002.582s,-016.2C,00002191
2021-12-29 04:53:16 r, 20.82m,0000000001Hz,0001160963c,0000002.519s,-016.5C,00002191
2021-12-29 05:03:15 r, 20.82m,0000000000Hz,0001162800c,0000002.523s,-016.5C,00002191
2021-12-29 05:13:15 r, 20.81m,0000000000Hz,0001143457c,0000002.481s,-016.5C,00002191
2021-12-29 05:23:15 r, 20.77m,0000000000Hz,0001102779c,0000002.393s,-016.8C,00002191
2021-12-29 05:33:17 r, 20.77m,0000000001Hz,0001104238c,0000002.396s,-016.8C,00002191
2021-12-29 05:43:15 r, 20.76m,0000000000Hz,0001091236c,0000002.368s,-016.8C,00002191
2021-12-29 05:53:15 r, 20.85m,0000000000Hz,0001183381c,0000002.568s,-016.8C,00002191
2021-12-29 06:03:15 r, 20.82m,0000000001Hz,0001156730c,0000002.510s,-016.8C,00002191
2021-12-29 06:13:15 r, 20.66m,0000000001Hz,0000991565c,0000002.152s,-016.8C,00002191
2021-12-29 06:23:15 r, 20.60m,0000000001Hz,0000934009c,0000002.027s,-017.1C,00002191
2021-12-29 06:33:16 r, 20.58m,0000000000Hz,0000920474c,0000001.998s,-017.5C,00002191
2021-12-29 06:43:15 r, 20.38m,0000000001Hz,0000777512c,0000001.687s,-017.5C,00002191
2021-12-29 06:53:15 r, 20.29m,0000000001Hz,0000713294c,0000001.548s,-017.5C,00002191
2021-12-29 07:03:17 r, 19.97m,0000000001Hz,0000531038c,0000001.152s,-017.5C,00002191
2021-12-29 07:13:15 r, 19.15m,0000000002Hz,0000250616c,0000000.544s,-017.1C,00002191
2021-12-29 07:23:15 r, 18.06m,0000000005Hz,0000091783c,0000000.199s,-016.8C,00002191
2021-12-29 07:33:17 r, 16.65m,0000000018Hz,0000025120c,0000000.055s,-016.2C,00002191
2021-12-29 07:43:15 r, 14.95m,0000000087Hz,0000005222c,0000000.011s,-015.8C,00002191
2021-12-29 07:53:15 r, 13.21m,0000000438Hz,0000000000c,0000000.000s,-015.5C,00002191
2021-12-29 08:03:15 r, 11.54m,0000002039Hz,0000000000c,0000000.000s,-015.5C,00002191
2021-12-29 08:13:15 r, 10.13m,0000007506Hz,0000000000c,0000000.000s,-014.9C,00002191
2021-12-29 08:23:17 r, 09.06m,0000020128Hz,0000000000c,0000000.000s,-014.6C,00002191
2021-12-29 08:33:15 r, 08.16m,0000045954Hz,0000000000c,0000000.000s,-014.6C,00002191
2021-12-29 08:43:15 r, 07.52m,0000083444Hz,0000000000c,0000000.000s,-014.6C,00002191
2021-12-29 08:53:15 r, 07.09m,0000123133Hz,0000000000c,0000000.000s,-013.9C,00002191
2021-12-29 09:03:16 r, 06.96m,0000139357Hz,0000000000c,0000000.000s,-013.9C,00002191
2021-12-29 09:13:15 r, 06.56m,0000200279Hz,0000000000c,0000000.000s,-013.9C,00002191
2021-12-29 09:23:15 r, 06.14m,0000297838Hz,0000000000c,0000000.000s,-013.6C,00002191
2021-12-29 09:33:17 r, 00.00m,0000544657Hz,0000000000c,0000000.000s,-012.9C,00002191
2021-12-29 09:43:15 r, 00.00m,0000600138Hz,0000000000c,0000000.000s,-011.3C,00002191
2021-12-29 09:53:15 r, 00.00m,0000503903Hz,0000000000c,0000000.000s,-010.0C,00002191
2021-12-29 10:03:15 r, 00.00m,0000551081Hz,0000000000c,0000000.000s,-009.7C,00002191
2021-12-29 10:13:15 r, 00.00m,0000600150Hz,0000000000c,0000000.000s,-010.0C,00002191
2021-12-29 10:23:15 r, 00.00m,0000600028Hz,0000000000c,0000000.000s,-010.4C,00002191
2021-12-29 10:33:15 r, 00.00m,0000600177Hz,0000000000c,0000000.000s,-010.4C,00002191
2021-12-29 10:43:15 r, 00.00m,0000600086Hz,0000000000c,0000000.000s,-010.4C,00002191
2021-12-29 10:53:15 r, 00.00m,0000600002Hz,0000000000c,0000000.000s,-010.0C,00002191
2021-12-29 11:03:16 r, 00.00m,0000599998Hz,0000000000c,0000000.000s,-009.1C,00002191
2021-12-29 11:13:15 r, 00.00m,0000600059Hz,0000000000c,0000000.000s,-009.4C,00002191
2021-12-29 11:23:15 r, 00.00m,0000599949Hz,0000000000c,0000000.000s,-009.7C,00002191
2021-12-29 11:33:17 r, 00.00m,0000599993Hz,0000000000c,0000000.000s,-009.7C,00002191
2021-12-29 11:43:15 r, 00.00m,0000599896Hz,0000000000c,0000000.000s,-009.4C,00002191
2021-12-29 11:53:15 r, 00.00m,0000600092Hz,0000000000c,0000000.000s,-009.7C,00002191
2021-12-29 12:03:17 r, 00.00m,0000600046Hz,0000000000c,0000000.000s,-009.4C,00002191
2021-12-29 12:13:15 r, 00.00m,0000600011Hz,0000000000c,0000000.000s,-009.1C,00002191
2021-12-29 12:23:15 r, 00.00m,0000547533Hz,0000000000c,0000000.000s,-009.1C,00002191
2021-12-29 12:33:15 r, 00.00m,0000519002Hz,0000000000c,0000000.000s,-009.1C,00002191
2021-12-29 12:43:16 r, 00.00m,0000506934Hz,0000000000c,0000000.000s,-009.1C,00002191
2021-12-29 12:53:15 r, 00.00m,0000468333Hz,0000000000c,0000000.000s,-009.4C,00002191
2021-12-29 13:03:16 r, 00.00m,0000422055Hz,0000000000c,0000000.000s,-009.4C,00002191
2021-12-29 13:13:15 r, 00.00m,0000446584Hz,0000000000c,0000000.000s,-009.7C,00002191
2021-12-29 13:23:15 r, 00.00m,0000428142Hz,0000000000c,0000000.000s,-010.0C,00002191
2021-12-29 13:33:15 r, 00.00m,0000421294Hz,0000000000c,0000000.000s,-010.0C,00002191
2021-12-29 13:43:17 r, 00.00m,0000409907Hz,0000000000c,0000000.000s,-010.0C,00002191
2021-12-29 13:53:15 r, 00.00m,0000413941Hz,0000000000c,0000000.000s,-009.7C,00002191
2021-12-29 14:03:17 r, 00.00m,0000402979Hz,0000000000c,0000000.000s,-009.4C,00002191
2021-12-29 14:13:15 r, 05.83m,0000394694Hz,0000000000c,0000000.000s,-009.1C,00002191
2021-12-29 14:23:15 r, 05.86m,0000381949Hz,0000000000c,0000000.000s,-008.8C,00002191
2021-12-29 14:33:15 r, 05.95m,0000353956Hz,0000000000c,0000000.000s,-009.1C,00002191
2021-12-29 14:43:16 r, 05.99m,0000341454Hz,0000000000c,0000000.000s,-009.1C,00002191
2021-12-29 14:53:15 r, 05.96m,0000352195Hz,0000000000c,0000000.000s,-009.1C,00002191
2021-12-29 15:03:16 r, 06.06m,0000319107Hz,0000000000c,0000000.000s,-009.4C,00002191
2021-12-29 15:13:15 r, 06.17m,0000290153Hz,0000000000c,0000000.000s,-009.4C,00002191
2021-12-29 15:23:15 r, 06.26m,0000265348Hz,0000000000c,0000000.000s,-009.7C,00002191
2021-12-29 15:33:15 r, 06.11m,0000303621Hz,0000000000c,0000000.000s,-009.4C,00002191
2021-12-29 15:43:17 r, 00.00m,0000408621Hz,0000000000c,0000000.000s,-009.1C,00002191
2021-12-29 15:53:15 r, 06.08m,0000313479Hz,0000000000c,0000000.000s,-008.1C,00002191
2021-12-29 16:03:17 r, 06.49m,0000214856Hz,0000000000c,0000000.000s,-007.8C,00002191
2021-12-29 16:13:15 r, 07.00m,0000134834Hz,0000000000c,0000000.000s,-008.1C,00002191
2021-12-29 16:23:15 r, 07.75m,0000067333Hz,0000000000c,0000000.000s,-008.8C,00002191
2021-12-29 16:33:17 r, 08.55m,0000032254Hz,0000000000c,0000000.000s,-009.7C,00002191
2021-12-29 16:43:15 r, 09.54m,0000012915Hz,0000000000c,0000000.000s,-010.4C,00002191
2021-12-29 16:53:15 r, 10.87m,0000003788Hz,0000000000c,0000000.000s,-011.0C,00002191
2021-12-29 17:03:15 r, 12.53m,0000000820Hz,0000000000c,0000000.000s,-011.3C,00002191
2021-12-29 17:13:16 r, 14.31m,0000000159Hz,0000000000c,0000000.000s,-011.3C,00002191
2021-12-29 17:23:15 r, 16.12m,0000000030Hz,0000015356c,0000000.033s,-011.3C,00002191
2021-12-29 17:33:15 r, 17.78m,0000000007Hz,0000070808c,0000000.154s,-011.7C,00002191
2021-12-29 17:43:17 r, 19.11m,0000000002Hz,0000241785c,0000000.525s,-011.7C,00002191
2021-12-29 17:53:15 r, 19.85m,0000000001Hz,0000475140c,0000001.031s,-012.0C,00002191
2021-12-29 18:03:15 r, 20.43m,0000000000Hz,0000810410c,0000001.759s,-012.0C,00002191
2021-12-29 18:13:15 r, 20.35m,0000000000Hz,0000752969c,0000001.634s,-012.0C,00002191
2021-12-29 18:23:15 r, 20.27m,0000000001Hz,0000703727c,0000001.527s,-012.0C,00002191
2021-12-29 18:33:17 r, 20.15m,0000000000Hz,0000627082c,0000001.361s,-012.3C,00002191
2021-12-29 18:43:15 r, 19.99m,0000000001Hz,0000544191c,0000001.181s,-012.6C,00002191
2021-12-29 18:53:15 r, 20.02m,0000000001Hz,0000555683c,0000001.206s,-012.9C,00002191
2021-12-29 19:03:15 r, 19.90m,0000000001Hz,0000496364c,0000001.077s,-012.6C,00002191
2021-12-29 19:13:16 r, 20.08m,0000000001Hz,0000587533c,0000001.275s,-012.6C,00002191
2021-12-29 19:23:15 r, 20.11m,0000000001Hz,0000603746c,0000001.310s,-012.3C,00002191
2021-12-29 19:33:15 r, 20.54m,0000000000Hz,0000898610c,0000001.950s,-012.6C,00002191
2021-12-29 19:43:17 r, 20.80m,0000000000Hz,0001133001c,0000002.459s,-012.9C,00002191
2021-12-29 19:53:15 r, 20.85m,0000000001Hz,0001194972c,0000002.593s,-012.9C,00002191
2021-12-29 20:03:15 r, 20.88m,0000000000Hz,0001215764c,0000002.638s,-013.3C,00002191
2021-12-29 20:13:17 r, 20.88m,0000000001Hz,0001225941c,0000002.660s,-013.6C,00002191
2021-12-29 20:23:15 r, 20.89m,0000000000Hz,0001232801c,0000002.675s,-013.6C,00002191
2021-12-29 20:33:17 r, 20.90m,0000000001Hz,0001238868c,0000002.689s,-013.9C,00002191
2021-12-29 20:43:15 r, 20.90m,0000000001Hz,0001239971c,0000002.691s,-014.6C,00002191
2021-12-29 20:53:15 r, 20.90m,0000000001Hz,0001238980c,0000002.689s,-014.9C,00002191
2021-12-29 21:03:17 r, 20.89m,0000000001Hz,0001230250c,0000002.670s,-014.9C,00002191
2021-12-29 21:13:15 r, 20.88m,0000000000Hz,0001224021c,0000002.656s,-014.9C,00002191
2021-12-29 21:23:15 r, 20.89m,0000000000Hz,0001230514c,0000002.670s,-014.9C,00002191
2021-12-29 21:33:15 r, 20.85m,0000000000Hz,0001184221c,0000002.570s,-014.9C,00002191
2021-12-29 21:43:17 r, 20.81m,0000000001Hz,0001138878c,0000002.472s,-014.6C,00002191
2021-12-29 21:53:15 r, 20.82m,0000000001Hz,0001150826c,0000002.497s,-014.2C,00002191
2021-12-29 22:03:15 r, 20.85m,0000000000Hz,0001193616c,0000002.590s,-014.2C,00002191
2021-12-29 22:13:17 r, 20.85m,0000000001Hz,0001190534c,0000002.584s,-013.9C,00002191
2021-12-29 22:23:15 r, 20.86m,0000000000Hz,0001200791c,0000002.606s,-013.6C,00002191
2021-12-29 22:33:15 r, 20.88m,0000000000Hz,0001214801c,0000002.636s,-013.6C,00002191
2021-12-29 22:43:15 r, 20.85m,0000000001Hz,0001183103c,0000002.567s,-013.6C,00002191
2021-12-29 22:53:15 r, 20.86m,0000000000Hz,0001199714c,0000002.604s,-013.3C,00002191
2021-12-29 23:03:17 r, 20.85m,0000000000Hz,0001192593c,0000002.588s,-013.6C,00002191
2021-12-29 23:13:15 r, 20.86m,0000000000Hz,0001204138c,0000002.613s,-013.6C,00002191
2021-12-29 23:23:15 r, 20.88m,0000000000Hz,0001225500c,0000002.660s,-013.9C,00002191
2021-12-29 23:33:15 r, 20.87m,0000000000Hz,0001206443c,0000002.618s,-013.9C,00002191
2021-12-29 23:43:16 r, 20.83m,0000000001Hz,0001167099c,0000002.533s,-013.9C,00002191
2021-12-29 23:53:15 r, 20.85m,0000000000Hz,0001189174c,0000002.581s,-013.9C,00002191
